Location: Zürich
(47.3769°N, 8.5417°E)
Time: 11:28:18
(UTC+02:00)

ISS - Pass Details

Date: 19 May 2021
Orbit: 417 x 422 km, 51.6° (Epoch: 13 June)

Event Time Altitude Azimuth Distance (km) Brightness Sun altitude
Rises 02:06:10 0° 294° (WNW) 2,371 0.2 -22.1°
Reaches altitude 10° 02:08:16 10° 294° (WNW) 1,505 -0.8 -22.1°
Enters shadow 02:09:22 19° 295° (WNW) 1,065 -1.6 -22.0°
